Change the Weather History Date:

Sunday, November 25, 2012

  Actual Average Record
Temperature  
Mean Temperature 37 °F 42 °F  
Max Temperature 42 °F 50 °F 65 °F (2001)
Min Temperature 32 °F 35 °F 18 °F (1989)
Degree Days  
Heating Degree Days 28 23  
Month to date heating degree days 542 476  
Since 1 July heating degree days 822 896  
Cooling Degree Days 0 0  
Month to date cooling degree days 0 0  
Year to date cooling degree days 993 787  
Moisture  
Dew Point 19 °F    
Average Humidity 51    
Maximum Humidity 61    
Minimum Humidity 40    
Precipitation  
Precipitation 0.00 in 0.12 in 0.89 in (2008)
Month to date precipitation 1.45 3.00  
Year to date precipitation 38.13 41.51  
Snow  
Snow 0.00 in 0.00 in - ()
Month to date snowfall 4.2 0.3  
Since 1 July snowfall 4.2 0.3  
Snow Depth 0.00 in    
Sea Level Pressure  
Sea Level Pressure 29.88 in    
Wind  
Wind Speed 12 mph (West)    
Max Wind Speed 23 mph    
Max Gust Speed 31 mph    
Visibility 10 miles    
Events      
T = Trace of Precipitation, MM = Missing Value Source: NWS Daily Summary

Daily Weather History Graph

Daily Weather History Graph

Search for Another Location

Airport or City:

Trip Planner

Search our weather history database for the weather conditions in past years. The results will help you decide how hot, cold, wet, or windy it might be!

Date:

Astronomy

Nov. 25, 2012 Rise Set
Actual Time 6:51 AM EST 4:27 PM EST
Civil Twilight 6:21 AM EST 4:57 PM EST
Nautical Twilight 5:47 AM EST 5:31 PM EST
Astronomical Twilight 5:14 AM EST 6:04 PM EST
Moon 2:43 PM EST (11/25) 4:02 AM EST (11/25)
Length of Visible Light 10h 36m
Length of Day
9h 36m
Waxing Gibbous, 93% of the Moon is Illuminated
Nov 25
Waxing Gibbous
Nov 28
Full
Dec 6
Last Quarter
Dec 13
New
Dec 20
First Quarter

Hourly Weather History & Observations

Time (EST) Temp. Windchill Dew Point Humidity Pressure Visibility Wind Dir Wind Speed Gust Speed Precip Events Conditions
12:56 AM 35.1 °F 26.9 °F 18.0 °F 50% 29.80 in 10.0 mi West 11.5 mph 21.9 mph N/A   Partly Cloudy
1:56 AM 35.1 °F 26.9 °F 18.0 °F 50% 29.82 in 10.0 mi West 11.5 mph - N/A   Partly Cloudy
2:56 AM 33.1 °F 25.5 °F 17.1 °F 52% 29.83 in 10.0 mi West 9.2 mph - N/A   Partly Cloudy
3:56 AM 35.1 °F 25.2 °F 15.1 °F 44% 29.85 in 10.0 mi WNW 16.1 mph 27.6 mph N/A   Scattered Clouds
4:56 AM 35.1 °F 26.4 °F 18.0 °F 50% 29.86 in 10.0 mi West 12.7 mph - N/A   Overcast
5:56 AM 35.1 °F 26.4 °F 17.1 °F 48% 29.88 in 10.0 mi West 12.7 mph - N/A   Mostly Cloudy
6:56 AM 34.0 °F 25.0 °F 15.1 °F 46% 29.89 in 10.0 mi WNW 12.7 mph - N/A   Mostly Cloudy
7:56 AM 35.1 °F 28.6 °F 16.0 °F 46% 29.89 in 10.0 mi West 8.1 mph - N/A   Mostly Cloudy
8:56 AM 37.0 °F 27.7 °F 16.0 °F 42% 29.90 in 10.0 mi WNW 16.1 mph 25.3 mph N/A   Mostly Cloudy
9:56 AM 39.0 °F 29.6 °F 17.1 °F 41% 29.89 in 10.0 mi NW 18.4 mph 26.5 mph N/A   Mostly Cloudy
10:56 AM 39.0 °F 31.4 °F 17.1 °F 41% 29.88 in 10.0 mi WNW 12.7 mph - N/A   Overcast
11:56 AM 39.9 °F 31.8 °F 18.0 °F 41% 29.87 in 10.0 mi WNW 15.0 mph 25.3 mph N/A   Overcast
12:56 PM 41.0 °F 32.8 °F 19.0 °F 41% 29.85 in 10.0 mi WNW 16.1 mph 23.0 mph N/A   Mostly Cloudy
1:56 PM 41.0 °F 33.9 °F 19.0 °F 41% 29.84 in 10.0 mi West 12.7 mph - N/A   Mostly Cloudy
2:56 PM 41.0 °F 34.3 °F 19.9 °F 43% 29.83 in 10.0 mi West 11.5 mph - N/A   Mostly Cloudy
3:56 PM 39.9 °F 32.5 °F 19.9 °F 45% 29.84 in 10.0 mi West 12.7 mph - N/A   Scattered Clouds
4:56 PM 37.9 °F 32.1 °F 21.0 °F 51% 29.86 in 10.0 mi West 8.1 mph - N/A   Scattered Clouds
5:56 PM 33.1 °F 27.7 °F 21.0 °F 61% 29.88 in 10.0 mi WSW 5.8 mph - N/A   Scattered Clouds
6:56 PM 32.0 °F 26.4 °F 19.9 °F 61% 29.90 in 10.0 mi WSW 5.8 mph - N/A   Scattered Clouds
7:56 PM 32.0 °F 25.6 °F 19.9 °F 61% 29.92 in 10.0 mi WSW 6.9 mph - N/A   Mostly Cloudy
8:56 PM 36.0 °F 29.6 °F 21.0 °F 55% 29.94 in 10.0 mi WSW 8.1 mph - N/A   Overcast
9:56 PM 37.0 °F 28.5 °F 21.0 °F 52% 29.94 in 10.0 mi West 13.8 mph - N/A   Overcast
10:56 PM 35.1 °F 26.4 °F 21.0 °F 57% 29.95 in 10.0 mi WSW 12.7 mph - N/A   Mostly Cloudy
11:56 PM 33.1 °F 27.7 °F 21.0 °F 61% 29.96 in 10.0 mi WSW 5.8 mph - N/A   Scattered Clouds